sat.trackr.live / text

‹ back to catalog

STARLINK-33984

NORAD 63830 · 2025-092AC

PAYLOAD ACTIVE UNKNOWN

§ Identity

Operator
Country
US
Launch date
2025-05-04
Launch site
AFETR
Launch vehicle
Mass (kg)
RCS (m²)

Purposes: comms

External: N2YO · Heavens-Above · Gunter

§ Orbital elements

Epoch: 2026-09-20T01:41:25.662624Z

Period
94.26 min
Inclination
42.9994°
Eccentricity
0.0001299
Mean motion
15.27610268 rev/d
Perigee alt
482.1 km
Apogee alt
483.8 km
Semi-major
6,861.1 km
B*
6.3118e-4
RAAN
154.6902°
Arg perigee
273.5534°
Mean anomaly
86.5169°
Rev number
7,834

§ Raw data

STARLINK-339841 63830U 25092AC  26263.07043591  .00017163  00000+0  63118-3 0  99952 63830  42.9994 154.6902 0001299 273.5534  86.5169 15.27610268 78341

JSON: /api/v1/satellites/63830 · /tle

For live sub-satellite position, see the globe view (requires WebGL).

§ Visibility from observer

Set your observer location to see the next 7 days of passes ≥ 10°. The values pass through the URL so the page stays shareable.

No JS? Fill the form by hand. The geolocation button needs JavaScript.